• In Belgien
  • Länderverzeichnis
  • Für 7 Tage
  • Wassertemperatur
  • Satellitenkarten
  • Wetterkarte
  • Widgets
  • user-avatar
    Anmelden

    Stündliche Wetter Satif

    Heute, 17 August, Donnerstag

    Zeit Temperatur Niederschläge Wind Luftdruck Luftfeuchtigkeit
    00:00 +28°C° 0 mm 1 m/S 675 mmHg 58%
    01:00 +27°C° 0 mm 1 m/S 675 mmHg 59%
    02:00 +27°C° 0 mm 1 m/S 675 mmHg 61%
    03:00 +26°C° 0 mm 1 m/S 675 mmHg 62%
    04:00 +26°C° 0 mm 1 m/S 675 mmHg 62%
    05:00 +26°C° 0 mm 1 m/S 675 mmHg 62%
    06:00 +26°C° 0 mm 1 m/S 675 mmHg 61%
    07:00 +27°C° 0 mm 1 m/S 676 mmHg 55%
    08:00 +28°C° 0 mm 1 m/S 676 mmHg 49%
    09:00 +30°C° 0 mm 2 m/S 677 mmHg 43%
    10:00 +31°C° 0,1 mm 2 m/S 677 mmHg 40%
    11:00 +32°C° 0,1 mm 2 m/S 677 mmHg 38%
    12:00 +34°C° 0,1 mm 3 m/S 677 mmHg 35%
    13:00 +34°C° 0,4 mm 3 m/S 677 mmHg 36%
    14:00 +34°C° 0,4 mm 3 m/S 677 mmHg 37%
    15:00 +34°C° 0,4 mm 3 m/S 676 mmHg 38%
    16:00 +33°C° 0 mm 3 m/S 676 mmHg 43%
    17:00 +31°C° 0 mm 3 m/S 676 mmHg 47%
    18:00 +30°C° 0 mm 3 m/S 676 mmHg 52%
    19:00 +29°C° 0 mm 3 m/S 676 mmHg 56%
    20:00 +28°C° 0 mm 3 m/S 676 mmHg 59%
    21:00 +27°C° 0 mm 2 m/S 676 mmHg 63%
    22:00 +27°C° 0 mm 2 m/S 676 mmHg 63%
    23:00 +27°C° 0 mm 2 m/S 676 mmHg 63%

    Morgen, 18 August, Freitag

    Zeit Temperatur Niederschläge Wind Luftdruck Luftfeuchtigkeit
    00:00 +26°C° 0 mm 1 m/S 676 mmHg 63%
    01:00 +26°C° 0 mm 1 m/S 675 mmHg 63%
    02:00 +26°C° 0 mm 1 m/S 675 mmHg 64%
    03:00 +26°C° 0 mm 1 m/S 675 mmHg 64%
    04:00 +26°C° 0 mm 1 m/S 675 mmHg 62%
    05:00 +26°C° 0 mm 1 m/S 675 mmHg 60%
    06:00 +26°C° 0 mm 1 m/S 675 mmHg 57%
    07:00 +28°C° 0 mm 2 m/S 676 mmHg 49%
    08:00 +29°C° 0 mm 2 m/S 676 mmHg 40%
    09:00 +31°C° 0 mm 3 m/S 677 mmHg 31%
    10:00 +33°C° 0 mm 3 m/S 677 mmHg 29%
    11:00 +34°C° 0 mm 4 m/S 677 mmHg 27%
    12:00 +35°C° 0 mm 4 m/S 677 mmHg 25%
    13:00 +35°C° 0 mm 4 m/S 676 mmHg 25%
    14:00 +35°C° 0 mm 4 m/S 676 mmHg 26%
    15:00 +35°C° 0 mm 4 m/S 676 mmHg 26%
    16:00 +34°C° 0 mm 4 m/S 675 mmHg 28%
    17:00 +33°C° 0 mm 3 m/S 675 mmHg 30%
    18:00 +32°C° 0 mm 2 m/S 675 mmHg 33%
    19:00 +31°C° 0 mm 2 m/S 675 mmHg 36%
    20:00 +30°C° 0 mm 2 m/S 675 mmHg 40%
    21:00 +29°C° 0 mm 1 m/S 675 mmHg 44%
    22:00 +29°C° 0 mm 1 m/S 675 mmHg 45%
    23:00 +28°C° 0 mm 1 m/S 675 mmHg 46%

    übermorgen, 19 August, Samstag

    Zeit Temperatur Niederschläge Wind Luftdruck Luftfeuchtigkeit
    00:00 +28°C° 0 mm 1 m/S 675 mmHg 47%
    01:00 +28°C° 0 mm 1 m/S 674 mmHg 48%
    02:00 +27°C° 0 mm 1 m/S 674 mmHg 49%
    03:00 +25°C° 0 mm 0 m/S 674 mmHg 50%
    04:00 +27°C° 0 mm 1 m/S 674 mmHg 49%
    05:00 +27°C° 0 mm 1 m/S 675 mmHg 48%
    06:00 +27°C° 0 mm 1 m/S 675 mmHg 46%
    07:00 +28°C° 0 mm 2 m/S 675 mmHg 43%
    08:00 +29°C° 0 mm 2 m/S 676 mmHg 40%
    09:00 +30°C° 0 mm 2 m/S 677 mmHg 37%
    10:00 +31°C° 0 mm 2 m/S 677 mmHg 35%
    11:00 +31°C° 0 mm 2 m/S 677 mmHg 33%
    12:00 +33°C° 0 mm 3 m/S 677 mmHg 32%
    13:00 +33°C° 0 mm 3 m/S 677 mmHg 32%
    14:00 +33°C° 0 mm 3 m/S 676 mmHg 33%
    15:00 +33°C° 0 mm 3 m/S 676 mmHg 34%
    16:00 +32°C° 0 mm 4 m/S 676 mmHg 38%
    17:00 +30°C° 0 mm 4 m/S 676 mmHg 42%
    18:00 +29°C° 0 mm 5 m/S 676 mmHg 45%
    19:00 +28°C° 0 mm 4 m/S 676 mmHg 50%
    20:00 +27°C° 0 mm 4 m/S 676 mmHg 54%
    21:00 +26°C° 0 mm 3 m/S 677 mmHg 59%
    22:00 +25°C° 0 mm 3 m/S 677 mmHg 61%
    23:00 +24°C° 0 mm 3 m/S 677 mmHg 63%

    20 August, Sonntag

    Zeit Temperatur Niederschläge Wind Luftdruck Luftfeuchtigkeit
    00:00 +24°C° 0 mm 2 m/S 677 mmHg 65%
    01:00 +24°C° 0 mm 2 m/S 676 mmHg 66%
    02:00 +23°C° 0 mm 2 m/S 676 mmHg 67%
    03:00 +23°C° 0 mm 2 m/S 676 mmHg 67%
    04:00 +23°C° 0 mm 2 m/S 676 mmHg 67%
    05:00 +23°C° 0 mm 2 m/S 676 mmHg 67%
    06:00 +21°C° 0 mm 2 m/S 676 mmHg 67%
    07:00 +24°C° 0 mm 2 m/S 677 mmHg 58%
    08:00 +25°C° 0 mm 2 m/S 677 mmHg 49%
    09:00 +27°C° 0 mm 2 m/S 678 mmHg 40%
    10:00 +28°C° 0 mm 2 m/S 678 mmHg 38%
    11:00 +29°C° 0 mm 2 m/S 678 mmHg 36%
    12:00 +30°C° 0 mm 2 m/S 678 mmHg 33%
    13:00 +30°C° 0 mm 3 m/S 678 mmHg 33%
    14:00 +31°C° 0 mm 3 m/S 678 mmHg 33%
    15:00 +31°C° 0 mm 3 m/S 677 mmHg 33%
    16:00 +30°C° 0 mm 4 m/S 677 mmHg 36%
    17:00 +28°C° 0 mm 4 m/S 677 mmHg 39%
    18:00 +27°C° 0 mm 4 m/S 677 mmHg 42%
    19:00 +26°C° 0 mm 4 m/S 677 mmHg 44%
    20:00 +25°C° 0 mm 3 m/S 677 mmHg 46%
    21:00 +24°C° 0 mm 2 m/S 677 mmHg 48%
    22:00 +24°C° 0 mm 2 m/S 676 mmHg 48%
    23:00 +24°C° 0 mm 2 m/S 676 mmHg 48%

    21 August, Montag

    Zeit Temperatur Niederschläge Wind Luftdruck Luftfeuchtigkeit
    00:00 +23°C° 0 mm 2 m/S 676 mmHg 48%
    01:00 +23°C° 0 mm 1 m/S 676 mmHg 49%
    02:00 +22°C° 0 mm 1 m/S 675 mmHg 50%
    03:00 +22°C° 0 mm 1 m/S 675 mmHg 50%
    04:00 +22°C° 0 mm 1 m/S 675 mmHg 49%
    05:00 +22°C° 0 mm 1 m/S 675 mmHg 48%
    06:00 +22°C° 0 mm 1 m/S 676 mmHg 46%
    07:00 +24°C° 0 mm 1 m/S 676 mmHg 41%
    08:00 +25°C° 0 mm 1 m/S 676 mmHg 36%
    09:00 +27°C° 0 mm 1 m/S 677 mmHg 30%
    10:00 +28°C° 0 mm 2 m/S 677 mmHg 29%
    11:00 +29°C° 0 mm 2 m/S 677 mmHg 27%
    12:00 +30°C° 0 mm 2 m/S 677 mmHg 26%
    13:00 +30°C° 0 mm 3 m/S 676 mmHg 26%
    14:00 +31°C° 0 mm 3 m/S 676 mmHg 26%
    15:00 +32°C° 0 mm 4 m/S 676 mmHg 26%
    16:00 +30°C° 0 mm 4 m/S 676 mmHg 29%
    17:00 +29°C° 0 mm 4 m/S 675 mmHg 32%
    18:00 +27°C° 0 mm 4 m/S 675 mmHg 35%
    19:00 +26°C° 0 mm 3 m/S 675 mmHg 38%
    20:00 +25°C° 0 mm 3 m/S 675 mmHg 41%
    21:00 +24°C° 0 mm 2 m/S 675 mmHg 44%
    22:00 +24°C° 0 mm 2 m/S 675 mmHg 44%
    23:00 +24°C° 0 mm 1 m/S 674 mmHg 45%

    22 August, Dienstag

    Zeit Temperatur Niederschläge Wind Luftdruck Luftfeuchtigkeit
    00:00 +23°C° 0 mm 1 m/S 674 mmHg 45%
    01:00 +23°C° 0 mm 1 m/S 674 mmHg 46%
    02:00 +22°C° 0 mm 1 m/S 674 mmHg 46%
    03:00 +22°C° 0 mm 1 m/S 673 mmHg 47%
    04:00 +22°C° 0 mm 1 m/S 674 mmHg 45%
    05:00 +22°C° 0 mm 1 m/S 674 mmHg 44%
    06:00 +22°C° 0 mm 1 m/S 674 mmHg 43%
    07:00 +24°C° 0 mm 1 m/S 675 mmHg 39%
    08:00 +25°C° 0 mm 1 m/S 675 mmHg 34%
    09:00 +26°C° 0 mm 1 m/S 675 mmHg 30%
    10:00 +28°C° 0 mm 2 m/S 675 mmHg 28%
    11:00 +29°C° 0 mm 2 m/S 675 mmHg 26%
    12:00 +30°C° 0 mm 3 m/S 675 mmHg 25%
    13:00 +30°C° 0 mm 3 m/S 675 mmHg 25%
    14:00 +30°C° 0 mm 3 m/S 675 mmHg 25%
    15:00 +31°C° 0 mm 3 m/S 674 mmHg 25%
    16:00 +30°C° 0 mm 3 m/S 674 mmHg 28%
    17:00 +29°C° 0 mm 3 m/S 674 mmHg 31%
    18:00 +28°C° 0 mm 3 m/S 674 mmHg 34%
    19:00 +27°C° 0 mm 3 m/S 674 mmHg 38%
    20:00 +26°C° 0 mm 2 m/S 674 mmHg 41%
    21:00 +25°C° 0 mm 2 m/S 674 mmHg 45%
    22:00 +24°C° 0 mm 1 m/S 674 mmHg 46%
    23:00 +24°C° 0 mm 1 m/S 673 mmHg 47%
    Mehr zeigen